Agricola Oriental Norte, Mexico

1:02 PM CDT on May 28, 2017 (GMT -0500)
Agricola Oriental Norte

Weather History for 76679 - February, 2014

Change the Weather History Date:

Tuesday, February 4, 2014

  Actual Average Record
Temperature  
Mean Temperature 63 °F -  
Max Temperature 78 °F 73 °F - ()
Min Temperature 48 °F 43 °F - ()
Degree Days  
Heating Degree Days 2    
Growing Degree Days 13 (Base 50)    
Moisture  
Dew Point 34 °F    
Average Humidity 38    
Maximum Humidity 66    
Minimum Humidity 10    
Precipitation  
Precipitation 0.00 in - - ()
Sea Level Pressure  
Sea Level Pressure 30.10 in    
Wind  
Wind Speed 3 mph ()    
Max Wind Speed 15 mph    
Max Gust Speed -    
Visibility 8.9 miles    
Events      
T = Trace of Precipitation, MM = Missing Value Source: Averaged Metar Reports

Daily Weather History Graph

Daily Weather History Graph

Search for Another Location

Airport or City:

Trip Planner

Search our weather history database for the weather conditions in past years. The results will help you decide how hot, cold, wet, or windy it might be!

Date:

Astronomy

Feb. 04, 2014 Rise Set
Actual Time 7:10 AM CST 6:30 PM CST
Civil Twilight 6:47 AM CST 6:53 PM CST
Nautical Twilight 6:21 AM CST 7:19 PM CST
Astronomical Twilight 5:55 AM CST 7:46 PM CST
Moon 10:39 AM CST (2/4) 11:32 PM CST (2/4)
Length of Visible Light 12h 06m
Length of Day
11h 20m
Waxing Crescent, 29% of the Moon is Illuminated
Feb 4
Waxing Crescent
Feb 6
First Quarter
Feb 14
Full
Feb 22
Last Quarter
Mar 1
New

Hourly Weather History & Observations

Time (CST) Temp. Dew Point Humidity Pressure Visibility Wind Dir Wind Speed Gust Speed Precip Events Conditions
12:48 AM 59.0 °F 37.4 °F 45% 30.23 in 12.0 mi SSW 5.8 mph - N/A   Clear
1:52 AM 57.2 °F 37.4 °F 48% 30.23 in 12.0 mi Calm Calm - N/A   Clear
2:51 AM 55.4 °F 37.4 °F 51% 29.72 in 12.0 mi Calm Calm - N/A   Clear
3:45 AM 53.6 °F 37.4 °F 54% 30.21 in 12.0 mi Calm Calm - N/A   Clear
4:46 AM 51.8 °F 37.4 °F 58% 30.21 in 12.0 mi Calm Calm - N/A   Clear
5:49 AM 50.0 °F 37.4 °F 62% 29.78 in 12.0 mi Calm Calm - N/A   Clear
6:22 AM 50.0 °F 35.6 °F 58% 30.23 in 10.0 mi ENE 4.6 mph - N/A   Clear
6:45 AM 48.2 °F 37.4 °F 66% 30.23 in 10.0 mi ENE 3.5 mph - N/A   Clear
7:23 AM 50.0 °F 39.2 °F 66% 30.24 in 8.0 mi Calm Calm - N/A   Clear
7:41 AM 53.6 °F 39.2 °F 58% 30.24 in 8.0 mi NE 3.5 mph - N/A   Clear
7:43 AM 53.6 °F 39.2 °F 58% 30.24 in 8.0 mi ENE 2.3 mph - N/A   Clear
8:21 AM 57.2 °F 37.4 °F 48% 30.25 in 8.0 mi Calm Calm - N/A   Clear
8:22 AM 57.2 °F 37.4 °F 48% 30.25 in 8.0 mi Calm Calm - N/A   Clear
8:44 AM 59.0 °F 37.4 °F 45% 29.79 in 8.0 mi Calm Calm - N/A   Clear
9:20 AM 60.8 °F 37.4 °F 42% 30.27 in 7.0 mi ENE 4.6 mph - N/A   Clear
9:43 AM 62.6 °F 39.2 °F 42% 30.27 in 7.0 mi ENE 4.6 mph - N/A   Clear
10:14 AM 66.2 °F 37.4 °F 35% 30.27 in 7.0 mi ESE 3.5 mph - N/A   Clear
10:42 AM 66.2 °F 33.8 °F 30% 30.26 in 8.0 mi SSW 2.3 mph - N/A   Clear
11:43 AM 69.8 °F 28.4 °F 21% 30.23 in 8.0 mi SE 5.8 mph - N/A   Clear
11:46 AM 69.8 °F 30.2 °F 23% 29.74 in 8.0 mi SSE 8.1 mph - N/A   Clear
12:41 PM 73.4 °F 21.2 °F 14% 30.20 in 10.0 mi SSW 8.1 mph - N/A   Clear
12:45 PM 73.4 °F 21.2 °F 14% 30.19 in 10.0 mi SW 5.8 mph - N/A   Clear
1:47 PM 75.2 °F 17.6 °F 11% 30.15 in 10.0 mi SSE 5.8 mph - N/A   Clear
2:27 PM 78.8 °F 17.6 °F 10% 30.13 in 10.0 mi South 6.9 mph - N/A   Clear
2:43 PM 78.8 °F 17.6 °F 10% 29.59 in 10.0 mi ENE 3.5 mph - N/A   Clear
3:45 PM 77.0 °F 23.0 °F 13% 30.10 in 8.0 mi SE 3.5 mph - N/A   Clear
4:41 PM 75.2 °F 32.0 °F 21% 30.11 in 8.0 mi ESE 13.8 mph - N/A   Partly Cloudy
5:43 PM 73.4 °F 37.4 °F 27% 29.66 in 8.0 mi ESE 15.0 mph - N/A   Partly Cloudy
6:35 PM 69.8 °F 37.4 °F 31% 30.15 in 7.0 mi SE 10.4 mph - N/A   Clear
6:43 PM 69.8 °F 37.4 °F 31% 30.15 in 7.0 mi ESE 11.5 mph - N/A   Clear
7:41 PM 68.0 °F 37.4 °F 33% 30.18 in 8.0 mi East 2.3 mph - N/A   Clear
8:44 PM 66.2 °F 35.6 °F 32% 29.73 in 8.0 mi East 5.8 mph - N/A   Clear
9:43 PM 64.4 °F 35.6 °F 34% 30.24 in 8.0 mi NE 3.5 mph - N/A   Clear
10:44 PM 62.6 °F 37.4 °F 39% 30.25 in 8.0 mi North 2.3 mph - N/A   Clear
11:44 PM 60.8 °F 39.2 °F 45% 29.75 in 8.0 mi SE 3.5 mph - N/A   Clear